Home   Weather   York   Past weeks

Flag for United Kingdom Past Weather in York, England, United Kingdom — Yesterday and Last 2 Weeks

Now
39 °F

Drizzle. Low clouds.


Feels Like: 34 °F
Forecast: 37 / 44 °F
Wind: 8 mph from Southeast

Location: Linton-On-Ouse

Current Time: Jan 17, 2017 at 9:11:21 am

Latest Report: Jan 17, 2017 at 7:50 am


Visibility: 1 mi

Pressure: 30.51 "Hg

Humidity: 100%

Dew Point: 39 °F

Location of YorkLocation

Past Weather in York — Graph

°F

York Temperature Yesterday

Maximum temperature yesterday: 45 °F (at 12:50 am)
Minimum temperature yesterday: 39 °F (at 9:26 am)
Average temperature yesterday: 41 °F

High & Low Weather Summary for the Past Weeks

 TemperatureHumidityPressure
High54 °F (Jan 11, 3:50 am)100% (Jan 6, 10:50 pm)30.57 "Hg (Jan 6, 10:50 pm)
Low28 °F (Jan 2, 8:50 pm)53% (Jan 13, 1:50 pm)29.39 "Hg (Jan 12, 5:50 pm)
Average40 °F83%30.11 "Hg
* Reported Jan 2 7:50 am — Jan 17 7:50 am, York, Weather by CustomWeather, © 2017

Note: Actual official high and low records may vary slightly from our data, if they occured in-between our weather recording intervals... More about our weather records

Advertising

York Weather History for the Previous 24 Hours

Scroll right to see more
 ConditionsComfort  
Time TempWeatherWind HumidityBarometerVisibility
7:50 am
Tue, Jan 17
39 °FDrizzle. Low clouds.8 mph100%30.51 "Hg1 mi
6:50 am39 °FFog.6 mph100%30.48 "Hg1 mi
5:50 am39 °FFog.8 mph100%30.48 "Hg1 mi
4:50 am39 °FLow clouds.5 mph100%30.48 "Hg1 mi
3:50 am41 °FLow clouds.6 mph93%30.48 "Hg1 mi
2:50 am41 °FLow clouds.6 mph93%30.48 "Hg1 mi
1:50 am41 °FLow clouds.3 mph93%30.48 "Hg1 mi
12:50 am41 °FLow clouds.8 mph93%30.45 "Hg1 mi
11:50 pm
Mon, Jan 16
41 °FLow clouds.7 mph93%30.45 "Hg1 mi
10:50 pm41 °FLow clouds.7 mph93%30.45 "Hg1 mi
9:50 pm41 °FLow clouds.6 mph93%30.45 "Hg1 mi
8:50 pm41 °FLow clouds.6 mph93%30.42 "Hg1 mi
7:50 pm41 °FLow clouds.6 mph93%30.42 "Hg1 mi
6:50 pm41 °FLow clouds.3 mph93%30.39 "Hg1 mi
5:50 pm41 °FLow clouds.5 mph93%30.36 "Hg1 mi
4:50 pm41 °FDrizzle. Low clouds.5 mph93%30.36 "Hg1 mi
4:28 pm41 °FDrizzle. Low clouds.5 mph93%30.36 "Hg1 mi
4:16 pm41 °FDrizzle. Low clouds.6 mph93%30.36 "Hg1 mi
2:50 pm41 °FFog.6 mph100%30.33 "Hg2 mi
1:50 pm41 °FFog.5 mph93%30.33 "Hg2 mi
1:36 pm41 °FFog.5 mph100%30.33 "Hg2 mi
12:50 pm41 °FDrizzle. Low clouds.5 mph93%30.33 "Hg2 mi
12:21 pm41 °FFog.6 mph93%30.33 "Hg2 mi
11:50 am41 °FDrizzle. Low clouds.6 mph93%30.33 "Hg2 mi
11:17 am41 °FDrizzle. Low clouds.8 mph93%30.33 "Hg2 mi
10:50 am39 °FDrizzle. Low clouds.8 mph100%30.33 "Hg1 mi
10:24 am39 °FDrizzle. Low clouds.7 mph100%30.33 "Hg1 mi
9:50 am39 °FDrizzle. Low clouds.7 mph100%30.30 "Hg1 mi
9:26 am39 °FDrizzle. Low clouds.8 mph100%30.30 "Hg1 mi
Weather by CustomWeather, © 2017

See weather overviewHow to use our weather pages